Location: Coed Ely
(51.5661°N, 3.4150°W)
Time: 02:37:19
(UTC+00:00)

NOSS 3-1 (A) - Pass Details

Date: 28 January 2021
Orbit: 738 x 1474 km, 63.4° (Epoch: 22 February)

Event Time Altitude Azimuth Distance (km) Brightness Sun altitude
Rises 17:36:48 0° 313° (NW) 3,824 7.0 -6.6°
Reaches altitude 10° 17:39:16 10° 315° (NW) 2,966 6.4 -6.9°
Maximum altitude 17:46:29 78° 42° (NE) 1,282 4.0 -8.0°
Drops below altitude 10° 17:55:01 10° 130° (SE) 3,466 6.1 -9.2°
Sets 17:58:06 0° 131° (SE) 4,501 6.6 -9.7°
